Regional Weather Roundup
Issued by NWS

Home | Current Version | Previous Version | Graphics & Text | Print | Product List | Glossary On
Versions: 1 2 3 4 5 6 7 8 9 10 11 12 13 14 15 16 17 18 19 20 21 22 23 24 25 26 27 28 29 30 31 32 33 34 35 36 37 38 39 40 41 42 43 44 45 46 47 48 49 50
000
ASUS43 KLSX 281259
RWRMO

WEATHER SUMMARY FOR MISSOURI
NATIONAL WEATHER SERVICE SPRINGFIELD MO
800 AM CDT THU MAY 28 2015

NOTE: "FAIR" INDICATES FEW OR NO CLOUDS BELOW 12,000 FEET WITH NO
       SIGNIFICANT WEATHER AND/OR OBSTRUCTIONS TO VISIBILITY.
       CURRENT SKY AND/OR WEATHER CONDITIONS ARE NOT AVAILABLE FOR
       CHILLICOTHE AND FARMINGTON.

MOZ001>031-035>038-043-044-053-054-281400-
...NORTHERN AND WESTERN MISSOURI...

CITY           SKY/WX    TMP DP  RH WIND       PRES   REMARKS
KANSAS CTY INT LGT RAIN  63  62  97 E6        30.11F FOG
KANSAS C DTWN  CLOUDY    65  62  90 NE6       30.10F
LEE`S SUMMIT   CLOUDY    64  62  93 NW3       30.11S
ST JOSEPH      LGT RAIN  63  61  93 SE6       30.12S
KIRKSVILLE     CLOUDY    66  60  81 SE8       30.16S

$$
MOZ066>068-077>081-088>096-101>105-281400-
...SOUTHWEST MISSOURI...

CITY           SKY/WX    TMP DP  RH WIND       PRES   REMARKS
SPRINGFIELD    MOSUNNY   70  67  90 S8        30.12R
JOPLIN         PTSUNNY   68  65  90 CALM      30.10S

$$
MOZ032>034-039>042-045>050-055>058-069>072-281400-
...CENTRAL MISSOURI...

CITY           SKY/WX    TMP DP  RH WIND       PRES   REMARKS
COLUMBIA       PTSUNNY   68  60  75 SE10      30.14R
JEFFERSON CITY PTSUNNY   68  61  78 SE6       30.13R
ROLLA          PTSUNNY   65  64  97 SE7       30.13R
SEDALIA        CLOUDY    66  59  78 SE8       30.13R
OSAGE BEACH    CLOUDY    66  63  88 NE3       30.12S

$$
MOZ051-052-059>065-281400-
...EAST CENTRAL MISSOURI...

CITY           SKY/WX    TMP DP  RH WIND       PRES   REMARKS
ST LOUIS INTL  PTSUNNY   71  59  65 E9        30.17R
SPIRIT OF STL  MOSUNNY   69  62  78 E3        30.15R
ST CHARLES     SUNNY     70  59  68 E12       30.15S

$$
MOZ072>076-082>087-097>100-106>115-281400-
...SOUTH CENTRAL AND SOUTHEAST MISSOURI...

CITY           SKY/WX    TMP DP  RH WIND       PRES   REMARKS
CAPE GIRARDEAU PTSUNNY   70  68  93 SE5       30.16S
FARMINGTON     PTSUNNY   66  64  94 SE3       30.20S
POPLAR BLUFF   CLOUDY    69  67  93 S3        30.15R FOG
WEST PLAINS    FOG       67  66  97 SE5       30.17R VSB 1

$$


USA.gov is the U.S. government's official web portal to all federal, state and local government web resources and services.